GW0614 Weather Reports


Display with metric or nautical units.
time (UTC)temp
F
wind
direction
speed
MPH
gust
MPH
rain 1hr
in
rain 24hr
in
rain mn
in
humidity
%
barometer
mb
20260902145418 66 236 0.0 0.0 0.00 0.00 0.00 92 1024.9
20260902144913 66 357 0.0 0.0 0.00 0.00 0.00 92 1024.9
20260902144409 66 349 0.0 0.0 0.00 0.00 0.00 93 1024.8
20260902143909 66 359 0.0 0.0 0.00 0.00 0.00 93 1024.8
20260902143404 66 353 0.0 0.0 0.00 0.00 0.00 92 1025.0
20260902142859 66 342 0.0 1.0 0.00 0.00 0.00 88 1025.0
20260902142355 66 352 0.0 1.0 0.00 0.00 0.00 89 1024.8
20260902141850 66 348 0.0 0.0 0.00 0.00 0.00 95 1024.7
20260902141345 66 344 0.0 1.0 0.00 0.00 0.00 91 1024.4
20260902140845 66 347 0.0 0.0 0.00 0.00 0.00 94 1024.5
20260902140340 66 10 0.0 0.0 0.00 0.00 0.00 92 1024.4
20260902135834 65 191 1.0 1.0 0.00 0.00 0.00 91 1024.5
20260902135330 65 354 0.0 1.0 0.00 0.00 0.00 94 1024.5
20260902134829 65 350 0.0 0.0 0.00 0.00 0.00 94 1024.9
20260902134325 64 350 0.0 0.0 0.00 0.00 0.00 95 1024.6
20260902133820 64 354 0.0 0.0 0.00 0.00 0.00 96 1024.3
20260902133320 64 340 0.0 0.0 0.00 0.00 0.00 96 1024.4
20260902132815 64 292 0.0 1.0 0.00 0.00 0.00 93 1024.4
20260902132310 63 52 0.0 0.0 0.00 0.00 0.00 95 1024.4
20260902131805 63 350 3.0 5.0 0.00 0.00 0.00 93 1024.4
20260902131302 63 346 2.0 2.0 0.00 0.00 0.00 92 1024.4
20260902130801 63 205 1.0 2.0 0.00 0.00 0.00 94 1024.1
20260902130257 63 354 1.0 1.0 0.00 0.00 0.00 94 1024.2
20260902125752 63 18 0.0 0.0 0.00 0.00 0.00 96 1023.8
20260902125248 62 323 1.0 1.0 0.00 0.00 0.00 95 1024.0
20260902124744 62 255 1.0 2.0 0.00 0.00 0.00 94 1023.8
20260902124240 62 317 2.0 2.0 0.00 0.00 0.00 94 1024.0
20260902123735 62 352 3.0 5.0 0.00 0.00 0.00 93 1023.9
20260902123231 62 4 0.0 0.0 0.00 0.00 0.00 94 1023.9
20260902122729 62 55 0.0 0.0 0.00 0.00 0.00 94 1024.0
20260902122226 62 5 0.0 0.0 0.00 0.00 0.00 93 1024.1
20260902121725 62 337 1.0 1.0 0.00 0.00 0.00 93 1023.7
20260902121221 62 265 0.0 0.0 0.00 0.00 0.00 94 1023.8
20260902120716 62 303 2.0 2.0 0.00 0.00 0.00 93 1024.0
20260902120213 62 312 0.0 1.0 0.00 0.00 0.00 94 1023.7
20260902115712 62 298 0.0 0.0 0.00 0.00 0.00 96 1023.6
20260902115209 62 271 2.0 6.0 0.00 0.00 0.00 93 1023.7
20260902114704 62 185 0.0 1.0 0.00 0.00 0.00 92 1023.7
20260902114200 62 352 0.0 0.0 0.00 0.00 0.00 96 1023.4
20260902113655 61 298 1.0 2.0 0.00 0.00 0.00 95 1023.7
20260902113150 61 243 0.0 1.0 0.00 0.00 0.00 97 1023.8
20260902112649 61 265 0.0 0.0 0.00 0.00 0.00 98 1023.9
20260902112147 61 228 0.0 1.0 0.00 0.00 0.00 96 1024.2
20260902111642 61 3 2.0 2.0 0.00 0.00 0.00 96 1024.1
20260902111138 61 7 0.0 0.0 0.00 0.00 0.00 99 1024.1
20260902110633 60 356 0.0 0.0 0.00 0.00 0.00 99 1024.5
20260902110130 61 356 0.0 0.0 0.00 0.00 0.00 99 1024.6
20260902105629 61 356 0.0 0.0 0.00 0.00 0.00 99 1024.3
20260902105124 61 356 0.0 0.0 0.00 0.00 0.00 99 1024.1
20260902104619 61 357 0.0 0.0 0.00 0.00 0.00 99 1024.2
20260902104114 61 357 0.0 0.0 0.00 0.00 0.00 99 1024.1
20260902103614 61 357 0.0 0.0 0.00 0.00 0.00 99 1024.0
20260902103110 61 357 0.0 0.0 0.00 0.00 0.00 99 1024.2
20260902102606 61 2 0.0 0.0 0.00 0.00 0.00 99 1023.9
20260902102103 61 2 0.0 0.0 0.00 0.00 0.00 99 1024.1
20260902101558 61 2 0.0 0.0 0.00 0.00 0.00 99 1023.9
20260902101057 62 2 0.0 0.0 0.00 0.00 0.00 99 1023.9
20260902100551 62 2 0.0 0.0 0.00 0.00 0.00 99 1023.8
20260902100046 62 2 0.0 0.0 0.00 0.00 0.00 99 1023.7
20260902095540 62 2 0.0 0.0 0.00 0.00 0.00 99 1023.5
20260902095039 62 2 0.0 0.0 0.00 0.00 0.00 99 1023.2
20260902094535 62 2 0.0 0.0 0.00 0.00 0.00 99 1023.5
20260902094030 62 2 0.0 0.0 0.00 0.00 0.00 99 1023.4
20260902093524 62 2 0.0 0.0 0.00 0.00 0.00 99 1023.7
20260902093020 62 2 0.0 0.0 0.00 0.00 0.00 99 1023.6
20260902092514 62 2 0.0 0.0 0.00 0.00 0.00 99 1023.5
20260902092009 62 2 0.0 0.0 0.00 0.00 0.00 99 1023.5
20260902091504 62 2 0.0 0.0 0.00 0.00 0.00 99 1023.1
20260902091001 62 2 0.0 0.0 0.00 0.00 0.00 99 1023.4
20260902090456 62 2 0.0 0.0 0.00 0.00 0.00 99 1023.2
20260902085954 62 2 0.0 0.0 0.00 0.00 0.00 99 1023.2
20260902085450 62 2 0.0 0.0 0.00 0.00 0.00 99 1023.1
20260902084944 62 2 0.0 0.0 0.00 0.00 0.00 99 1022.9
20260902084442 62 2 0.0 0.0 0.00 0.00 0.00 99 1022.8
20260902083937 62 1 0.0 0.0 0.00 0.00 0.00 99 1022.9
20260902083436 62 2 0.0 0.0 0.00 0.00 0.00 99 1023.0
20260902082931 62 2 0.0 0.0 0.00 0.00 0.00 99 1023.1
20260902082427 62 2 0.0 0.0 0.00 0.00 0.00 99 1022.9
20260902081923 62 2 0.0 0.0 0.00 0.00 0.00 99 1023.0
20260902081420 62 2 0.0 0.0 0.00 0.00 0.00 99 1022.9
20260902080914 62 2 0.0 0.0 0.00 0.00 0.00 99 1022.7
20260902080410 62 2 0.0 0.0 0.00 0.00 0.00 99 1023.1
20260902075909 62 2 0.0 0.0 0.00 0.00 0.00 99 1023.1
20260902075406 62 2 0.0 0.0 0.00 0.00 0.00 99 1023.1
20260902074901 62 2 0.0 0.0 0.00 0.00 0.00 99 1023.3
20260902074357 62 2 0.0 0.0 0.00 0.00 0.00 99 1023.1
20260902073851 62 2 0.0 0.0 0.00 0.00 0.00 99 1023.2
20260902073348 62 2 0.0 0.0 0.00 0.00 0.00 99 1023.1
20260902072844 62 2 0.0 0.0 0.00 0.00 0.00 99 1022.8
20260902072339 62 2 0.0 0.0 0.00 0.00 0.00 99 1023.1
20260902071836 62 2 0.0 0.0 0.00 0.00 0.00 99 1023.0
20260902071329 62 2 0.0 0.0 0.00 0.00 0.00 99 1023.1
20260902070826 62 1 0.0 0.0 0.00 0.00 0.00 99 1023.0
20260902070326 62 346 0.0 0.0 0.00 0.00 0.00 99 1023.0
20260902065825 62 356 0.0 0.0 0.00 0.00 0.00 99 1023.4
20260902065320 62 356 0.0 0.0 0.00 0.00 0.00 99 1023.3
20260902064815 62 356 0.0 0.0 0.00 0.00 0.00 99 1023.3
20260902064312 62 356 0.0 0.0 0.00 0.00 0.00 99 1023.6
20260902063807 62 356 0.0 0.0 0.00 0.00 0.00 99 1023.4
20260902063307 62 5 0.0 0.0 0.00 0.00 0.00 99 1023.3
20260902062801 62 5 0.0 0.0 0.00 0.00 0.00 99 1023.4
20260902062256 62 5 0.0 0.0 0.00 0.00 0.00 99 1023.6
20260902061755 62 5 0.0 0.0 0.00 0.00 0.00 99 1023.3
20260902061250 62 5 0.0 0.0 0.00 0.00 0.00 99 1023.3
20260902060748 62 5 0.0 0.0 0.00 0.00 0.00 99 1023.4
20260902060243 62 5 0.0 0.0 0.00 0.00 0.00 99 1023.2
20260902055738 62 5 0.0 0.0 0.00 0.00 0.00 99 1023.5
20260902055234 62 5 0.0 0.0 0.00 0.00 0.00 99 1023.3
20260902054729 62 5 0.0 0.0 0.00 0.00 0.00 99 1022.9
20260902054225 62 5 0.0 0.0 0.00 0.00 0.00 99 1023.1
20260902053720 62 5 0.0 0.0 0.00 0.00 0.00 99 1022.8
20260902053220 62 7 0.0 0.0 0.00 0.00 0.00 99 1022.8
20260902052719 62 16 0.0 0.0 0.00 0.00 0.00 99 1022.8
20260902052215 62 16 0.0 0.0 0.00 0.00 0.00 99 1022.8
20260902051714 62 16 0.0 0.0 0.00 0.00 0.00 99 1022.7
20260902051209 62 353 0.0 0.0 0.00 0.00 0.00 99 1022.6
20260902050703 62 353 0.0 0.0 0.00 0.00 0.00 99 1022.6
20260902050159 62 353 0.0 0.0 0.00 0.00 0.00 99 1022.6
20260902045653 62 353 0.0 0.0 0.00 0.00 0.00 99 1022.6
20260902045149 62 352 0.0 0.0 0.00 0.00 0.00 99 1022.7
20260902044644 62 353 0.0 0.0 0.00 0.00 0.00 99 1022.4
20260902044140 62 353 0.0 0.0 0.00 0.00 0.00 99 1022.5
20260902043635 62 353 0.0 0.0 0.00 0.00 0.00 99 1022.5
20260902043130 62 28 0.0 0.0 0.00 0.00 0.00 99 1022.4
20260902042629 62 28 0.0 0.0 0.00 0.00 0.00 99 1022.4
20260902042125 62 28 0.0 0.0 0.00 0.00 0.00 99 1022.5
20260902041625 62 28 0.0 0.0 0.00 0.00 0.00 99 1022.5
20260902041119 62 28 0.0 0.0 0.00 0.00 0.00 99 1022.4
20260902040619 62 28 0.0 0.0 0.00 0.00 0.00 99 1022.1
20260902040114 62 7 0.0 0.0 0.00 0.00 0.00 99 1022.2
20260902035612 62 7 0.0 0.0 0.00 1.19 1.19 99 1022.1
20260902035108 61 7 0.0 0.0 0.00 1.19 1.19 99 1022.0
20260902034607 62 357 0.0 0.0 0.00 1.19 1.19 99 1021.6
20260902034101 62 3 0.0 0.0 0.00 1.19 1.19 99 1021.7
20260902033600 62 3 0.0 0.0 0.00 1.19 1.19 99 1021.8
20260902033055 62 3 0.0 0.0 0.00 1.19 1.19 99 1021.9
20260902032554 62 3 0.0 0.0 0.00 1.19 1.19 99 1021.7
20260902032049 62 3 0.0 0.0 0.00 1.19 1.19 99 1021.8
20260902031544 62 3 0.0 0.0 0.00 1.19 1.19 99 1021.9
20260902031040 62 3 0.0 0.0 0.00 1.19 1.19 99 1021.7
20260902030534 62 3 0.0 0.0 0.00 1.19 1.19 99 1021.6
20260902030034 62 3 0.0 0.0 0.00 1.19 1.19 99 1021.7
20260902025529 62 3 0.0 0.0 0.00 1.19 1.19 99 1021.6
20260902025024 62 3 0.0 0.0 0.00 1.19 1.19 99 1021.5
20260902024520 62 3 0.0 0.0 0.00 1.19 1.19 99 1021.7
20260902024020 62 3 0.0 0.0 0.00 1.19 1.19 99 1021.6
20260902023516 63 3 0.0 0.0 0.00 1.19 1.19 99 1021.6
20260902023016 62 4 0.0 0.0 0.00 1.19 1.19 99 1021.5
20260902022510 63 358 0.0 0.0 0.00 1.19 1.19 99 1021.4
20260902022006 63 358 0.0 0.0 0.00 1.19 1.19 99 1021.7
20260902021501 62 2 0.0 0.0 0.00 1.19 1.19 99 1021.8
20260902020956 63 2 0.0 0.0 0.00 1.19 1.19 99 1021.6
20260902020452 63 1 0.0 0.0 0.00 1.19 1.19 99 1021.7
20260902015947 63 1 0.0 0.0 0.00 1.19 1.19 99 1021.7
20260902015443 63 2 0.0 0.0 0.00 1.19 1.19 99 1021.6
20260902014938 63 2 0.0 0.0 0.00 1.19 1.19 99 1021.5
20260902014435 63 3 0.0 0.0 0.00 1.19 1.19 99 1021.8
20260902013934 63 2 0.0 0.0 0.00 1.19 1.19 99 1021.7
20260902013430 63 2 0.0 1.0 0.00 1.19 1.19 99 1021.9
20260902012925 64 7 0.0 0.0 0.00 1.19 1.19 99 1021.5
20260902012420 64 7 0.0 0.0 0.00 1.19 1.19 99 1021.2
20260902011916 64 7 0.0 0.0 0.00 1.19 1.19 99 1021.0
20260902011411 64 7 0.0 0.0 0.00 1.19 1.19 99 1020.9
20260902010910 64 14 0.0 0.0 0.00 1.19 1.19 99 1020.8
20260902010405 64 14 0.0 0.0 0.00 1.19 1.19 99 1020.9
20260902005905 64 14 0.0 0.0 0.00 1.19 1.19 99 1020.8
20260902005404 64 14 0.0 0.0 0.00 1.19 1.19 99 1020.6
20260902004900 64 16 0.0 0.0 0.00 1.19 1.19 99 1020.6
20260902004400 65 18 0.0 0.0 0.00 1.19 1.19 99 1020.6
20260902003855 65 17 0.0 0.0 0.00 1.19 1.19 99 1020.1
20260902003350 65 19 0.0 0.0 0.00 1.19 1.19 99 1020.3
20260902002846 65 18 0.0 0.0 0.00 1.19 1.19 99 1020.4
20260902002344 65 329 0.0 1.0 0.00 1.19 1.19 99 1020.4
20260902001840 65 350 1.0 1.0 0.00 1.19 1.19 99 1020.0
20260902001335 65 355 0.0 0.0 0.00 1.19 1.19 99 1020.0
20260902000830 65 356 0.0 0.0 0.00 1.19 1.19 99 1019.9
20260902000324 65 354 0.0 0.0 0.00 1.19 1.19 99 1020.0
20260901235820 65 2 0.0 0.0 0.00 1.19 1.19 99 1019.8
20260901235319 65 11 1.0 1.0 0.00 1.19 1.19 99 1020.0
20260901234814 65 9 0.0 0.0 0.00 1.19 1.19 99 1019.7
20260901234308 65 17 0.0 0.0 0.00 1.19 1.19 99 1019.9
20260901233804 65 3 0.0 0.0 0.00 1.19 1.19 99 1020.0
20260901233259 65 14 0.0 0.0 0.00 1.19 1.19 99 1020.1
20260901232755 65 15 1.0 1.0 0.00 1.19 1.19 99 1020.1
20260901232249 66 350 0.0 0.0 0.00 1.19 1.19 99 1019.9
20260901231746 66 356 0.0 1.0 0.00 1.19 1.19 99 1019.8
20260901231242 66 352 0.0 0.0 0.00 1.19 1.19 99 1019.9
20260901230738 66 359 0.0 0.0 0.00 1.19 1.19 99 1019.5
20260901230237 66 28 0.0 0.0 0.00 1.19 1.19 99 1019.6
20260901225733 66 350 0.0 0.0 0.00 1.19 1.19 99 1019.9
20260901225226 66 350 1.0 2.0 0.00 1.19 1.19 99 1019.9
20260901224722 67 23 1.0 2.0 0.00 1.19 1.19 99 1019.8
20260901224218 67 1 0.0 0.0 0.00 1.19 1.19 99 1019.9
20260901223714 67 21 0.0 0.0 0.00 1.19 1.19 99 1020.0
20260901223209 67 12 0.0 0.0 0.00 1.19 1.19 99 1019.9
20260901222705 68 355 0.0 0.0 0.00 1.19 1.19 99 1019.9
20260901222201 68 357 0.0 0.0 0.00 1.19 1.19 99 1019.8
20260901221657 68 352 0.0 0.0 0.00 1.19 1.19 99 1019.8
20260901221153 67 352 0.0 0.0 0.00 1.19 1.19 99 1019.8
20260901220652 68 3 0.0 0.0 0.00 1.19 1.19 99 1019.7
20260901220152 68 356 0.0 0.0 0.00 1.19 1.19 99 1019.4
20260901215650 68 347 0.0 0.0 0.00 1.19 1.19 99 1019.4
20260901215145 68 346 0.0 0.0 0.00 1.19 1.19 99 1019.2
20260901214642 68 346 0.0 0.0 0.00 1.19 1.19 99 1019.5
20260901214137 69 347 0.0 0.0 0.00 1.19 1.19 99 1019.6
20260901213636 69 347 0.0 0.0 0.00 1.19 1.19 99 1019.3
20260901213131 69 346 0.0 0.0 0.00 1.19 1.19 99 1019.4
20260901212631 69 346 0.0 0.0 0.00 1.19 1.19 99 1019.3
20260901212127 69 345 0.0 0.0 0.00 1.19 1.19 99 1019.4
20260901211622 69 345 0.0 0.0 0.00 1.19 1.19 99 1019.2
20260901211119 69 345 0.0 0.0 0.00 1.19 1.19 99 1019.2
20260901210614 69 345 0.0 0.0 0.00 1.19 1.19 99 1019.3
20260901210110 69 345 0.0 0.0 0.00 1.19 1.19 99 1019.2
20260901205605 69 345 0.0 0.0 0.00 1.19 1.19 99 1019.5
20260901205059 69 345 0.0 0.0 0.00 1.19 1.19 99 1019.4
20260901204556 69 345 0.0 0.0 0.00 1.19 1.19 99 1019.6
20260901204050 69 345 0.0 0.0 0.00 1.19 1.19 99 1019.2
20260901203544 69 345 0.0 0.0 0.00 1.19 1.19 99 1019.2
20260901203040 69 345 0.0 0.0 0.00 1.19 1.19 99 1019.3
20260901202534 69 345 0.0 0.0 0.00 1.19 1.19 99 1019.1
20260901202031 69 345 0.0 0.0 0.00 1.19 1.19 99 1019.2
20260901201526 69 345 0.0 0.0 0.07 1.19 1.19 99 1019.2
20260901201020 69 345 0.0 0.0 0.07 1.19 1.19 99 1019.1
20260901200520 69 345 0.0 0.0 0.00 1.18 1.18 99 1019.0
20260901200020 69 345 0.0 0.0 0.00 1.18 1.18 99 1019.1
20260901195518 69 345 0.0 0.0 0.00 1.18 1.18 99 1019.2
20260901195017 69 345 0.0 0.0 0.00 1.18 1.18 99 1019.1
20260901194512 69 345 0.0 0.0 0.00 1.18 1.18 99 1019.0
20260901194008 69 345 0.0 0.0 0.00 1.18 1.18 99 1019.1
20260901193507 69 345 0.0 0.0 0.00 1.18 1.18 99 1018.9
20260901193002 69 345 0.0 0.0 0.00 1.18 1.18 99 1019.0
20260901192457 69 345 0.0 0.0 0.00 1.18 1.18 99 1018.9
20260901191953 69 345 0.0 0.0 0.00 1.18 1.18 99 1019.0
20260901191449 69 345 0.0 0.0 0.00 1.18 1.18 99 1018.8
20260901190944 69 35 0.0 0.0 0.00 1.18 1.18 99 1018.8
20260901190440 69 36 0.0 0.0 0.00 1.18 1.18 99 1019.1
20260901185938 69 36 0.0 0.0 0.00 1.18 1.18 99 1019.0
20260901185438 69 36 0.0 0.0 0.00 1.18 1.18 99 1018.7
20260901184937 69 36 0.0 0.0 0.05 1.18 1.18 99 1019.1
20260901184432 70 37 0.0 0.0 0.05 1.18 1.18 99 1018.9
20260901183928 70 349 0.0 0.0 0.00 1.17 1.17 99 1019.0
20260901183427 70 11 0.0 0.0 0.00 1.17 1.17 99 1019.0
20260901182923 70 11 0.0 0.0 0.07 1.17 1.17 99 1018.9
20260901182419 70 11 0.0 0.0 0.14 1.17 1.17 99 1018.8
20260901181913 69 11 0.0 0.0 0.19 1.16 1.16 99 1019.1
20260901181408 69 11 0.0 0.0 0.47 1.15 1.15 99 1018.9
20260901180907 69 11 0.0 0.0 0.73 1.14 1.14 99 1019.0
20260901180401 69 11 0.0 0.0 0.54 1.08 1.08 99 1018.9
20260901175859 69 338 0.0 0.0 0.17 1.02 1.02 99 1018.9
20260901175354 69 338 0.0 0.0 0.00 0.99 0.99 99 1018.9
20260901174849 69 338 0.0 0.0 0.00 0.99 0.99 99 1018.9
20260901174345 69 338 0.0 0.0 0.12 0.99 0.99 99 1018.8
20260901173840 70 338 0.0 0.0 0.31 0.99 0.99 99 1018.8
20260901173335 69 338 0.0 0.0 0.90 0.97 0.97 99 1018.6
20260901172832 69 338 0.0 0.0 1.13 0.94 0.94 99 1018.8
20260901172331 69 6 0.0 0.0 0.66 0.84 0.84 99 1018.7
20260901171829 69 8 0.0 0.0 0.28 0.74 0.74 99 1018.7
20260901171328 69 8 0.0 0.0 0.54 0.73 0.73 99 1018.8
20260901170827 69 9 0.0 0.0 0.35 0.70 0.70 99 1018.9
20260901170322 69 8 0.0 0.0 0.00 0.64 0.64 99 1019.0
20260901165821 70 9 0.0 0.0 0.07 0.64 0.64 99 1018.7
20260901165316 70 8 0.0 0.0 0.12 0.64 0.64 99 1018.6
20260901164813 70 8 0.0 0.0 0.71 0.63 0.63 99 1018.5
20260901164308 70 8 0.0 0.0 0.66 0.62 0.62 99 1018.8
20260901163802 70 348 0.0 0.0 0.05 0.52 0.52 99 1018.8
20260901163257 70 346 0.0 0.0 0.07 0.51 0.51 99 1018.7
20260901162752 70 347 0.0 0.0 0.19 0.51 0.51 99 1018.6
20260901162251 70 347 0.0 0.0 0.19 0.51 0.51 99 1018.6
20260901161750 70 347 0.0 0.0 0.24 0.49 0.49 99 1018.7
20260901161244 71 347 0.0 0.0 0.12 0.47 0.47 99 1018.8
20260901160741 71 347 0.0 0.0 0.00 0.45 0.45 99 1018.7
20260901160236 71 347 0.0 0.0 0.00 0.45 0.45 99 1018.9
20260901155735 72 347 0.0 0.0 0.00 0.45 0.45 99 1018.9
20260901155230 72 348 0.0 0.0 0.00 0.45 0.45 99 1019.0
20260901154725 72 348 0.0 0.0 0.00 0.45 0.45 99 1019.1
20260901154221 72 348 0.0 0.0 0.00 0.45 0.45 99 1019.2
20260901153716 72 348 0.0 0.0 0.00 0.45 0.45 99 1019.1
20260901153210 72 344 0.0 0.0 0.00 0.45 0.45 99 1019.1
20260901152704 72 344 0.0 0.0 0.07 0.45 0.45 99 1019.0
20260901152203 72 349 0.0 0.0 0.07 0.45 0.45 99 1019.0
20260901151658 72 348 0.0 0.0 0.07 0.45 0.45 99 1019.1
20260901151157 72 348 0.0 0.0 0.00 0.44 0.44 99 1019.0
20260901150651 72 348 0.0 0.0 0.00 0.44 0.44 99 1018.8
20260901150149 72 348 0.0 0.0 0.00 0.44 0.44 99 1018.8
20260901145648 72 355 0.0 0.0 0.00 0.44 0.44 99 1018.6